Content
SEND FEEDBACK

Daily
Averages
Monthly
Summary
United Kingdom

LONDON, ENGLAND


Home > Europe > United Kingdom > England
Elevation: 203 feet     Latitude: 51 09N     Longitude: 000 11W

WEATHER
 
SELECT A DAY
Number of Records: 292,878;   Date Range: 7/1/96 - 7/27/14
 
SHARE

PRINT THIS DATA

[ ← Previous Day ]
WEATHER ALMANAC - MARCH 17, 2013
[ Next Day → ]
[ °C ]   °F
Weather ElementAverageHighLow
Temperature40.3 °F44.6 °F (8:50 am)33.8 °F (10:50 pm)
Dewpoint37.1 °F39.2 °F (5:50 am)32 °F (10:50 pm)
Humidity88.3 %93 % (2:50 am)81 % (12:50 am)
Barometer29.24 in29.33 in (12:50 am)29.15 in (2:20 pm)
Wind Speed6 mph11.5 mph (9:50 am)
Weather ElementAverage
Visibility5.7 mi
Wind DirectionS (177.4 °)

Weather ElementTotal
Precipitation---
Heating Degree Days25.8 (Base 65)
Averaged from 47 records on March 17, 2013
WEATHER CONDITIONS BREAKOUT
WIND DIRECTION BREAKOUT
WEATHER BY HOUR - MARCH 17, 2013
[ °C ]   °F
Local TimeTemperatureDewpointHumidityBarometerVisibilityWind DirectionWind SpeedGust SpeedPrecipitationEventsConditions
12:50 AM41.0 °F35.6 °F81 %29.33 in6.2 miSSW (200°)8.1 mphPartly Cloudy
1:20 AM39.2 °F35.6 °F87 %29.33 in6.2 miSouth (190°)4.6 mphPartly Cloudy
1:50 AM41.0 °F35.6 °F81 %29.33 in6.2 miSSW (200°)5.8 mphScattered Clouds
2:20 AM39.2 °F33.8 °F81 %29.33 in6.2 miSouth (190°)3.5 mphScattered Clouds
2:50 AM37.4 °F35.6 °F93 %29.33 in6.2 miSouth (170°)2.3 mphMostly Cloudy
3:20 AM37.4 °F35.6 °F93 %29.33 in6.2 miSouth (170°)2.3 mphMostly Cloudy
3:50 AM39.2 °F35.6 °F87 %29.30 in6.2 miVariable2.3 mphMostly Cloudy
4:20 AM39.2 °F37.4 °F93 %29.30 in3.7 miSW (220°)4.6 mphRainLight Rain Showers
4:50 AM41.0 °F37.4 °F87 %29.30 in5.0 miSSW (200°)4.6 mphRainLight Rain Showers
5:20 AM39.2 °F37.4 °F93 %29.30 in6.2 miVariable2.3 mphMostly Cloudy
5:50 AM41.0 °F39.2 °F93 %29.30 in3.1 miSouth (170°)5.8 mphRainRain Showers
6:20 AM41.0 °F39.2 °F93 %29.30 in6.2 miSSE (160°)4.6 mphRainLight Rain
6:50 AM41.0 °F39.2 °F93 %29.27 in6.2 miSSE (160°)5.8 mphMostly Cloudy
7:20 AM42.8 °F39.2 °F87 %29.27 in6.2 miSSE (160°)5.8 mphRainLight Rain
7:50 AM42.8 °F39.2 °F87 %29.27 in6.2 miSouth (180°)8.1 mphMostly Cloudy
8:20 AM42.8 °F39.2 °F87 %29.27 in6.2 miSouth (170°)8.1 mphMostly Cloudy
8:50 AM44.6 °F39.2 °F81 %29.27 in6.2 miSSE (160°)9.2 mphMostly Cloudy
9:20 AM42.8 °F39.2 °F87 %29.24 in6.2 miSouth (180°)9.2 mphMostly Cloudy
9:50 AM42.8 °F39.2 °F87 %29.24 in6.2 miSouth (170°)11.5 mphRainLight Rain
10:20 AM42.8 °F39.2 °F87 %29.24 in6.2 miSouth (170°)8.1 mphRainLight Rain
10:50 AM42.8 °F39.2 °F87 %29.24 in6.2 miSouth (180°)9.2 mphRainLight Rain
11:20 AM42.8 °F39.2 °F87 %29.24 in6.2 miSouth (180°)9.2 mphRainLight Rain
11:50 AM42.8 °F39.2 °F87 %29.21 in5.6 miSouth (170°)9.2 mphRainLight Rain
12:20 PM42.8 °F39.2 °F87 %29.21 in6.2 miSouth (180°)9.2 mphRainLight Rain
12:50 PM41.0 °F37.4 °F87 %29.21 in6.2 miSouth (170°)9.2 mphRainLight Rain
1:20 PM42.8 °F39.2 °F87 %29.18 in6.2 miSSE (160°)6.9 mphMostly Cloudy
1:50 PM42.8 °F39.2 °F87 %29.18 in6.2 miSE (140°)5.8 mphMostly Cloudy
2:20 PM42.8 °F39.2 °F87 %29.15 in6.2 miSouth (180°)4.6 mphMostly Cloudy
2:50 PM42.8 °F39.2 °F87 %29.15 in6.2 miSouth (180°)4.6 mphRainLight Rain Showers
3:20 PM42.8 °F39.2 °F87 %29.15 in6.2 miVariable3.5 mphMostly Cloudy
3:50 PM42.8 °F37.4 °F81 %29.15 inWSW (240°)4.6 mphRainRain Showers
4:20 PM41.0 °F37.4 °F87 %29.15 in2.5 miWSW (240°)5.8 mphRainLight Rain Showers
4:50 PM41.0 °F37.4 °F87 %29.15 in6.2 miCalmRainLight Rain Showers
5:20 PM41.0 °F37.4 °F87 %29.15 in6.2 miCalmRainLight Rain
5:50 PM41.0 °F37.4 °F87 %29.15 in6.2 miNW (310°)4.6 mphRainLight Rain
6:20 PM41.0 °F37.4 °F87 %29.18 in6.2 miWNW (300°)9.2 mphRainLight Rain
6:50 PM39.2 °F37.4 °F93 %29.18 in6.2 miNW (310°)6.9 mphRainLight Rain
7:20 PM39.2 °F37.4 °F93 %29.18 in6.2 miWNW (300°)8.1 mphRainLight Rain
7:50 PM39.2 °F35.6 °F87 %29.18 in6.2 miWNW (300°)11.5 mphRainLight Rain
8:20 PM37.4 °F35.6 °F93 %29.21 in6.2 miWNW (290°)10.4 mphMostly Cloudy
8:50 PM37.4 °F33.8 °F87 %29.21 in6.2 miWSW (250°)8.1 mphPartly Cloudy
9:20 PM37.4 °F33.8 °F87 %29.21 in6.2 miWSW (240°)6.9 mphPartly Cloudy
9:50 PM35.6 °F33.8 °F93 %29.24 in5.6 miSW (230°)5.8 mphScattered Clouds
10:20 PM35.6 °F33.8 °F93 %29.24 in5.6 miWSW (240°)4.6 mphScattered Clouds
10:50 PM33.8 °F32.0 °F93 %29.24 in3.7 miVariable2.3 mphPartly Cloudy
11:20 PM33.8 °F32.0 °F93 %29.24 in2.8 miSSE (160°)2.3 mphHaze
11:50 PM33.8 °F32.0 °F93 %29.24 in2.8 miSouth (170°)2.3 mphHaze
Hourly data recorded from EGKK, located miles away from London, England







STORIES FROM OUR PARTNERS